Hourly Data Report for January 03, 2022

TERRACE A
BRITISH COLUMBIA
Current Station Operator: NAVCAN

54°28'07.000" N
128°34'42.000" W
217.30 m
1068134
71951
YXT

Download Data

Hourly Data (January 2022)
Hourly Data Report for January 3, 2022
TIME
LST
Temp Definition
°C
Dew Point Definition
°C
Rel Hum Definition
%
Precip. Amount Definition
mm

Wind Dir Definition
10's deg

Wind Spd Definition
km/h
Visibility Definition
km
Stn Press Definition
kPa
Hmdx Definition


Wind Chill Definition


Weather Definition


00:00 -2.4 -8.2 65 LegendMM 4 19 24.1 96.63   -8 LegendNANA
01:00 -3.1 -10.1 59 LegendMM 8 27 24.1 96.69   -10 Cloudy
02:00 -4.0 -10.9 59 LegendMM 3 18 24.1 96.78   -10 LegendNANA
03:00 -5.1 -11.8 60 LegendMM 4 23 24.1 96.93   -12 LegendNANA
04:00 -5.9 -12.6 59 LegendMM 8 23 24.1 97.10   -13 Cloudy
05:00 -7.1 -11.0 74 LegendMM 2 12 11.3 97.19   -12 Snow
06:00 -7.7 -14.3 60 LegendMM 3 23 9.7 97.21   -15 Snow
07:00 -8.3 -14.9 60 LegendMM 3 18 11.3 97.35   -15 Snow
08:00 -8.7 -15.3 60 LegendMM 4 12 16.1 97.42   -14 Snow
09:00 -9.4 -17.0 55 LegendMM 4 10 32.2 97.53   -15 LegendNANA
10:00 -9.7 -17.2 55 LegendMM 3 18 32.2 97.66   -17 Mostly Cloudy
11:00 -9.7 -18.1 51 LegendMM 5 17 32.2 97.73   -17 LegendNANA
12:00 -9.8 -18.8 48 LegendMM 2 13 32.2 97.76   -16 LegendNANA
13:00 -10.1 -18.7 50 LegendMM 2 19 32.2 97.82   -18 Mostly Cloudy
14:00 -10.2 -18.7 50 LegendMM 3 20 32.2 97.89   -18 LegendNANA
15:00 -10.3 -20.0 46 LegendMM 3 14 32.2 97.96   -17 LegendNANA
16:00 -11.5 -20.6 47 LegendMM 6 19 32.2 98.04   -20 Mostly Cloudy
17:00 -12.3 -21.3 48 LegendMM 2 23 32.2 98.16   -21 LegendNANA
18:00 -12.8 -21.8 47 LegendMM 2 18 32.2 98.25   -21 LegendNANA
19:00 -13.2 -21.9 49 LegendMM 3 27 24.1 98.35   -23 Mainly Clear
20:00 -13.3 -22.6 46 LegendMM 5 25 24.1 98.48   -23 LegendNANA
21:00 -14.0 -22.5 49 LegendMM 5 16 24.1 98.60   -22 LegendNANA
22:00 -14.3 -23.3 47 LegendMM 2 17 24.1 98.71   -23 Mainly Clear
23:00 -14.4 -23.2 48 LegendMM 3 24 24.1 98.81   -24 LegendNANA

Notes on Data Quality.

Legend

  • E = Estimated
  • M = Missing
  • NA = Not Available*
  • [empty] = Indicates an unobserved value
Date modified: